Weather History for Vernal, UT

Change the Weather History Date:

Tuesday, November 20, 2012

  Actual Average Record
Temperature  
Mean Temperature 40 °F 32 °F  
Max Temperature 53 °F 42 °F 58 °F (1989)
Min Temperature 26 °F 22 °F -11 °F (1930)
Degree Days  
Heating Degree Days 25 33  
Month to date heating degree days 493 564  
Since 1 July heating degree days 1061 1268  
Cooling Degree Days 0 0  
Month to date cooling degree days 0 0  
Year to date cooling degree days 810 511  
Moisture  
Dew Point 28 °F    
Average Humidity 63    
Maximum Humidity 85    
Minimum Humidity 41    
Precipitation  
Precipitation 0.00 in 0.02 in 0.25 in (1934)
Month to date precipitation 0.16 0.44  
Year to date precipitation 3.99 8.52  
Sea Level Pressure  
Sea Level Pressure 30.28 in    
Wind  
Wind Speed 3 mph (WNW)    
Max Wind Speed 7 mph    
Max Gust Speed 8 mph    
Visibility 10 miles    
Events      
T = Trace of Precipitation, MM = Missing Value Source: NWS Daily Summary

Daily Weather History Graph

Daily Weather History Graph

Search for Another Location

Airport:

Trip Planner

Search our weather history database for the weather conditions in past years. The results will help you decide how hot, cold, wet, or windy it might be!

Date:

Astronomy

Nov. 20, 2012 Rise Set
Actual Time 7:10 AM MST 4:56 PM MST
Civil Twilight 6:41 AM MST 5:26 PM MST
Nautical Twilight 6:07 AM MST 5:59 PM MST
Astronomical Twilight 5:35 AM MST 6:32 PM MST
Moon 12:45 PM MST (11/20) No Moon Set
Length of Visible Light 10h 45m
Length of Day
9h 46m
First Quarter, 52% of the Moon is Illuminated
Nov 20
First Quarter
Nov 28
Full
Dec 6
Last Quarter
Dec 13
New
Dec 19
First Quarter

Hourly Weather History & Observations

Time (MST) Temp. Windchill Dew Point Humidity Pressure Visibility Wind Dir Wind Speed Gust Speed Precip Events Conditions
12:53 AM 30.9 °F 25.2 °F 26.1 °F 82% 30.32 in 10.0 mi West 5.8 mph - N/A   Clear
1:53 AM 30.0 °F 25.2 °F 26.1 °F 85% 30.32 in 10.0 mi West 4.6 mph - N/A   Clear
2:53 AM 32.0 °F - 26.1 °F 79% 30.31 in 10.0 mi Calm Calm - N/A   Clear
3:53 AM 28.9 °F - 25.0 °F 85% 30.32 in 10.0 mi Calm Calm - N/A   Clear
4:53 AM 28.0 °F 24.2 °F 24.1 °F 85% 30.34 in 10.0 mi NW 3.5 mph - N/A   Clear
5:53 AM 27.0 °F 23.0 °F 23.0 °F 85% 30.37 in 10.0 mi WNW 3.5 mph - N/A   Clear
6:53 AM 27.0 °F 23.0 °F 23.0 °F 85% 30.40 in 10.0 mi West 3.5 mph - N/A   Clear
7:53 AM 28.9 °F 23.9 °F 25.0 °F 85% 30.41 in 10.0 mi West 4.6 mph - N/A   Clear
8:53 AM 37.9 °F - 30.9 °F 76% 30.37 in 10.0 mi Calm Calm - N/A   Clear
9:53 AM 42.1 °F 40.2 °F 32.0 °F 67% 30.36 in 10.0 mi ESE 3.5 mph - N/A   Clear
10:53 AM 43.0 °F - 30.9 °F 62% 30.35 in 10.0 mi Calm Calm - N/A   Clear
12:53 PM 48.9 °F - 30.9 °F 50% 30.26 in 10.0 mi East 4.6 mph - N/A   Clear
1:53 PM 51.1 °F - 30.0 °F 44% 30.22 in 10.0 mi Calm Calm - N/A   Clear
2:53 PM 53.1 °F - 30.0 °F 41% 30.19 in 10.0 mi East 5.8 mph - N/A   Clear
3:53 PM 52.0 °F - 30.0 °F 43% 30.19 in 10.0 mi Calm Calm - N/A   Clear
4:53 PM 48.0 °F - 30.0 °F 50% 30.21 in 10.0 mi Calm Calm - N/A   Clear
5:53 PM 42.1 °F - 30.0 °F 62% 30.23 in 10.0 mi Calm Calm - N/A   Clear
6:53 PM 39.0 °F 35.7 °F 30.0 °F 70% 30.25 in 10.0 mi West 4.6 mph - N/A   Clear
7:53 PM 37.9 °F 33.5 °F 30.0 °F 73% 30.25 in 10.0 mi WNW 5.8 mph - N/A   Clear
8:53 PM 37.0 °F 32.4 °F 28.9 °F 73% 30.21 in 10.0 mi WNW 5.8 mph - N/A   Clear
9:53 PM 36.0 °F 32.1 °F 28.0 °F 73% 30.20 in 10.0 mi WNW 4.6 mph - N/A   Clear
10:53 PM 32.0 °F 28.7 °F 27.0 °F 82% 30.19 in 10.0 mi WNW 3.5 mph - N/A   Clear
11:53 PM 30.9 °F 27.5 °F 26.1 °F 82% 30.19 in 10.0 mi NW 3.5 mph - N/A   Clear